Find Starlink 31904

NORAD ID: 59657 Int'l Des: 2024-084 Owner: SPXS Country: US Constellation: starlink operational
LEOCIRCULAR

リアルタイム位置

3D地球を読み込み中...

Starlink 31904について

説明を読み込み中...

次回通過

Passes for default location (London). Set your location on the main map for personalized predictions.

高度履歴

Loading altitude history...

軌道要素

1 59657U 24084D 26129.11511106 .00006843 00000-0 25821-3 0 9998
2 59657 43.0015 60.6187 0000941 299.2239 60.8519 15.27549078113614
Epoch: May 9, 2026 • Age: 22 hours

現在のステータス

高度 489.7 km
速度 7.62 km/s
衛星直下点 -28.01°S, 144.94°E
打ち上げ日 May 6, 2024
運用期間 2 years
タイプ internet

技術仕様

分類 Payload
質量 730.00 kg
乾燥質量 700.00 kg
総質量 730.00 kg
長さ 0.30 m
直径 4.10 m
スパン 29.00 m
形状 Box + pan
製造者 SPXS
バスタイプ Starlink V2M
フェーズステータス In Orbit
所有者/国 SPXS/US

Most Searched